CW7911 Weather Reports


Display with metric or nautical units.
time (UTC)temp
F
wind
direction
speed
MPH
gust
MPH
rain 1hr
in
rain 24hr
in
rain mn
in
humidity
%
barometer
mb
20260503032533 42 250 0.0 0.0 0.00 0.14 0.14 95 1008.7
20260503032031 42 250 0.0 0.0 0.00 0.14 0.14 95 1008.8
20260503031529 42 250 0.0 0.0 0.05 0.14 0.14 95 1008.9
20260503031026 42 250 0.0 0.0 0.00 0.13 0.13 95 1008.8
20260503030522 42 250 0.0 0.0 0.00 0.13 0.13 95 1008.9
20260503030019 42 250 0.0 0.0 0.00 0.13 0.13 95 1008.9
20260503025515 42 250 0.0 0.0 0.00 0.13 0.13 95 1009.1
20260503025014 42 250 0.0 0.0 0.00 0.13 0.13 95 1008.8
20260503024509 42 250 0.0 0.0 0.00 0.13 0.13 95 1009.0
20260503024007 41 250 0.0 0.0 0.00 0.13 0.13 95 1008.8
20260503023503 41 250 0.0 0.0 0.00 0.13 0.13 95 1009.0
20260503023001 41 250 0.0 0.0 0.00 0.13 0.13 95 1009.0
20260503022456 41 250 0.0 0.0 0.00 0.13 0.13 95 1008.9
20260503021951 41 250 0.0 0.0 0.00 0.13 0.13 95 1009.1
20260503021448 42 250 0.0 0.0 0.00 0.13 0.13 95 1009.0
20260503020946 42 250 0.0 0.0 0.00 0.13 0.13 95 1009.2
20260503020443 42 250 0.0 0.0 0.00 0.13 0.13 95 1009.3
20260503015939 42 250 0.0 0.0 0.00 0.13 0.13 95 1009.2
20260503015436 42 250 0.0 0.0 0.00 0.13 0.13 95 1009.4
20260503014932 42 250 0.0 0.0 0.00 0.13 0.13 95 1009.5
20260503014429 42 250 0.0 0.0 0.00 0.13 0.13 95 1009.4
20260503013928 42 250 0.0 0.0 0.00 0.13 0.13 95 1009.5
20260503013424 42 250 0.0 0.0 0.00 0.13 0.13 95 1009.4
20260503012922 42 250 1.0 1.0 0.00 0.13 0.13 95 1009.4
20260503012420 42 250 0.0 0.0 0.07 0.13 0.13 95 1009.5
20260503011915 42 250 0.0 0.0 0.07 0.13 0.13 95 1009.7
20260503011412 42 250 0.0 0.0 0.00 0.12 0.12 95 1009.6
20260503010909 42 250 0.0 0.0 0.00 0.12 0.12 95 1009.7
20260503010406 42 250 0.0 0.0 0.00 0.12 0.12 95 1009.7
20260503005903 43 250 0.0 0.0 0.00 0.12 0.12 95 1009.7
20260503005401 43 250 0.0 0.0 0.05 0.12 0.12 95 1009.6
20260503004856 43 250 0.0 0.0 0.05 0.12 0.12 95 1009.8
20260503004354 43 250 0.0 0.0 0.00 0.11 0.11 95 1009.8
20260503003852 43 250 0.0 0.0 0.00 0.11 0.11 95 1009.6
20260503003348 43 250 0.0 0.0 0.00 0.11 0.11 95 1009.7
20260503002845 43 250 0.0 0.0 0.00 0.11 0.11 95 1009.7
20260503002343 43 250 0.0 0.0 0.07 0.11 0.11 95 1009.5
20260503001839 43 250 0.0 0.0 0.07 0.11 0.11 95 1009.5
20260503001335 43 250 0.0 0.0 0.00 0.10 0.10 95 1009.3
20260503000832 43 250 0.0 0.0 0.00 0.10 0.10 95 1009.1
20260503000330 43 250 0.0 0.0 0.00 0.10 0.10 95 1009.3
20260502235827 43 250 0.0 0.0 0.00 0.10 0.10 95 1009.1
20260502235324 43 250 0.0 0.0 0.00 0.10 0.10 95 1009.4
20260502234821 43 250 0.0 0.0 0.00 0.10 0.10 95 1009.2
20260502234318 43 250 0.0 0.0 0.00 0.10 0.10 95 1009.3
20260502233814 43 250 0.0 0.0 0.00 0.10 0.10 95 1009.4
20260502233311 43 250 0.0 0.0 0.00 0.10 0.10 95 1009.5
20260502232808 43 250 0.0 0.0 0.00 0.10 0.10 95 1009.3
20260502232305 43 250 0.0 0.0 0.00 0.10 0.10 95 1009.0
20260502231800 43 250 0.0 0.0 0.00 0.10 0.10 95 1009.1
20260502231258 43 250 0.0 0.0 0.00 0.10 0.10 95 1009.0
20260502230756 43 250 0.0 0.0 0.07 0.10 0.10 95 1009.0
20260502230254 43 250 0.0 0.0 0.07 0.10 0.10 95 1009.0
20260502225750 44 250 0.0 1.0 0.00 0.09 0.09 95 1009.2
20260502225247 44 250 0.0 0.0 0.00 0.09 0.09 95 1008.8
20260502224744 44 250 0.0 0.0 0.00 0.09 0.09 95 1009.1
20260502224241 44 250 0.0 0.0 0.00 0.09 0.09 95 1009.1
20260502223738 44 250 0.0 0.0 0.00 0.09 0.09 95 1008.9
20260502223236 44 250 0.0 0.0 0.00 0.09 0.09 95 1009.0
20260502222734 44 250 0.0 0.0 0.00 0.09 0.09 95 1009.1
20260502222230 44 250 0.0 0.0 0.00 0.09 0.09 95 1009.0
20260502221726 44 250 0.0 0.0 0.00 0.09 0.09 95 1008.9
20260502221223 43 250 0.0 0.0 0.05 0.09 0.09 95 1009.1
20260502220719 44 250 0.0 0.0 0.07 0.08 0.08 95 1009.0
20260502220215 43 250 0.0 0.0 0.07 0.08 0.08 95 1009.2
20260502215713 44 250 0.0 0.0 0.00 0.07 0.07 95 1009.2
20260502215209 44 250 0.0 0.0 0.05 0.07 0.07 95 1009.2
20260502214707 44 250 0.0 0.0 0.05 0.07 0.07 94 1009.5
20260502214204 44 250 0.0 0.0 0.00 0.06 0.06 94 1009.4
20260502213701 44 250 0.0 0.0 0.00 0.06 0.06 94 1009.3
20260502213158 44 250 0.0 0.0 0.00 0.06 0.06 94 1009.1
20260502212656 44 250 0.0 0.0 0.00 0.06 0.06 94 1009.2
20260502212155 44 250 0.0 0.0 0.00 0.06 0.06 94 1009.2
20260502211650 44 250 0.0 0.0 0.00 0.06 0.06 94 1009.4
20260502211147 44 250 0.0 0.0 0.07 0.06 0.06 94 1009.4
20260502210644 44 250 0.0 0.0 0.07 0.06 0.06 94 1009.5
20260502210141 44 250 0.0 0.0 0.00 0.05 0.05 94 1009.3
20260502205638 44 250 0.0 0.0 0.00 0.05 0.05 94 1009.4
20260502205135 44 250 0.0 0.0 0.00 0.05 0.05 94 1009.4
20260502204632 44 250 0.0 0.0 0.00 0.05 0.05 94 1009.4
20260502204130 44 250 0.0 0.0 0.00 0.05 0.05 94 1009.3
20260502203626 44 250 0.0 0.0 0.05 0.05 0.05 94 1009.3
20260502203124 44 250 0.0 0.0 0.05 0.05 0.05 94 1009.3
20260502202619 44 250 0.0 0.0 0.00 0.04 0.04 94 1009.3
20260502202117 44 250 0.0 0.0 0.00 0.04 0.04 94 1009.3
20260502201613 44 250 0.0 0.0 0.00 0.04 0.04 94 1009.3
20260502201104 44 250 0.0 0.0 0.00 0.04 0.04 93 1009.3
20260502200600 43 250 0.0 0.0 0.00 0.04 0.04 93 1009.3
20260502200058 44 250 0.0 0.0 0.00 0.04 0.04 93 1009.4
20260502195556 43 250 0.0 0.0 0.00 0.04 0.04 92 1009.3
20260502195051 44 250 0.0 0.0 0.07 0.04 0.04 92 1009.5
20260502194548 44 250 0.0 0.0 0.07 0.04 0.04 91 1009.4
20260502194044 44 250 0.0 0.0 0.00 0.03 0.03 91 1009.6
20260502193542 44 250 0.0 0.0 0.00 0.03 0.03 90 1009.6
20260502193039 44 250 0.0 0.0 0.00 0.03 0.03 90 1009.7
20260502192534 44 250 0.0 1.0 0.00 0.03 0.03 89 1009.8
20260502192032 44 250 0.0 0.0 0.00 0.03 0.03 89 1009.7
20260502191529 45 250 0.0 0.0 0.00 0.03 0.03 88 1009.7
20260502191027 45 250 0.0 0.0 0.00 0.03 0.03 88 1009.6
20260502190524 45 250 0.0 0.0 0.00 0.03 0.03 88 1010.0
20260502190021 44 250 0.0 0.0 0.00 0.03 0.03 88 1009.8
20260502185515 44 250 0.0 0.0 0.00 0.03 0.03 88 1009.9
20260502185013 44 250 0.0 0.0 0.00 0.03 0.03 88 1010.1
20260502184508 44 250 0.0 0.0 0.00 0.03 0.03 89 1010.1
20260502184005 43 250 1.0 3.0 0.00 0.03 0.03 89 1010.2
20260502183501 43 250 0.0 0.0 0.00 0.03 0.03 89 1010.3
20260502182955 43 250 0.0 0.0 0.00 0.03 0.03 89 1010.2
20260502182452 43 250 0.0 0.0 0.00 0.03 0.03 89 1010.3
20260502181948 44 250 0.0 0.0 0.00 0.03 0.03 89 1010.4
20260502181446 44 250 0.0 0.0 0.00 0.03 0.03 89 1010.3
20260502180945 44 250 0.0 0.0 0.00 0.03 0.03 89 1010.3
20260502180441 43 250 0.0 0.0 0.00 0.03 0.03 89 1010.1
20260502170401 43 250 0.0 0.0 0.00 0.03 0.03 88 1010.2
20260502164342 43 250 0.0 0.0 0.00 0.03 0.03 87 1010.1
20260502163838 43 250 0.0 0.0 0.00 0.03 0.03 87 1010.0
20260502163334 42 250 0.0 0.0 0.00 0.03 0.03 87 1010.5
20260502162832 43 250 0.0 0.0 0.00 0.03 0.03 87 1010.4
20260502162329 42 250 0.0 0.0 0.00 0.03 0.03 87 1010.3
20260502161826 42 250 0.0 0.0 0.00 0.03 0.03 87 1010.3
20260502161321 42 250 0.0 0.0 0.00 0.03 0.03 87 1010.4
20260502160820 42 250 0.0 0.0 0.00 0.03 0.03 86 1010.5
20260502160318 42 250 0.0 0.0 0.00 0.03 0.03 86 1010.6
20260502152247 43 250 2.0 2.0 0.00 0.03 0.03 85 1010.7
20260502151745 42 250 0.0 2.0 0.00 0.03 0.03 85 1010.7
20260502151242 43 250 0.0 0.0 0.00 0.03 0.03 85 1010.8
20260502150739 43 250 1.0 2.0 0.00 0.03 0.03 85 1010.7
20260502150236 42 250 0.0 0.0 0.00 0.03 0.03 86 1010.7
20260502130618 42 250 0.0 0.0 0.00 0.02 0.02 88 1011.4
20260502130116 42 250 0.0 0.0 0.00 0.02 0.02 90 1011.7
20260502123601 41 250 0.0 0.0 0.00 0.02 0.02 91 1011.7
20260502123052 41 250 0.0 0.0 0.00 0.02 0.02 92 1011.8
20260502122549 41 250 0.0 0.0 0.00 0.02 0.02 93 1011.8
20260502122046 41 250 0.0 0.0 0.00 0.02 0.02 93 1011.7
20260502121544 41 250 0.0 0.0 0.00 0.02 0.02 94 1011.7
20260502121041 40 250 0.0 0.0 0.00 0.02 0.02 94 1011.4
20260502120537 40 250 0.0 0.0 0.00 0.02 0.02 94 1011.4
20260502115532 40 250 0.0 0.0 0.00 0.02 0.02 94 1011.5
20260502115027 40 250 0.0 0.0 0.00 0.02 0.02 94 1011.6
20260502114524 39 250 0.0 0.0 0.00 0.02 0.02 94 1011.8
20260502114021 39 250 0.0 1.0 0.00 0.02 0.02 94 1011.6
20260502113519 39 250 0.0 0.0 0.00 0.02 0.02 94 1011.8
20260502113017 38 250 0.0 0.0 0.00 0.02 0.02 94 1011.9
20260502112515 38 250 0.0 0.0 0.07 0.02 0.02 94 1011.8
20260502112012 38 250 0.0 0.0 0.07 0.02 0.02 94 1012.0
20260502111509 38 250 0.0 0.0 0.00 0.01 0.01 93 1011.9
20260502111007 38 250 0.0 0.0 0.00 0.01 0.01 93 1012.0
20260502110504 38 250 0.0 0.0 0.05 0.01 0.01 93 1011.8
20260502110001 38 250 0.0 0.0 0.05 0.01 0.01 92 1011.8
20260502105459 37 250 0.0 0.0 0.00 0.00 0.00 92 1011.8
20260502104956 38 250 0.0 0.0 0.00 0.00 0.00 92 1011.8
20260502104453 38 250 0.0 1.0 0.00 0.00 0.00 91 1011.8
20260502103950 38 250 0.0 0.0 0.00 0.00 0.00 91 1011.6
20260502103447 38 250 0.0 0.0 0.00 0.00 0.00 91 1012.0
20260502102939 38 250 0.0 0.0 0.00 0.00 0.00 89 1011.6
20260502102436 38 250 0.0 0.0 0.00 0.00 0.00 89 1011.1
20260502101933 38 250 0.0 0.0 0.00 0.00 0.00 88 1011.2
20260502101431 38 250 0.0 0.0 0.00 0.00 0.00 89 1010.8
20260502100929 37 250 0.0 0.0 0.00 0.00 0.00 90 1011.1
20260502100428 37 250 0.0 0.0 0.00 0.00 0.00 91 1010.9
20260502091402 35 250 0.0 0.0 0.00 0.00 0.00 90 1010.3
20260502090859 36 250 0.0 0.0 0.00 0.00 0.00 89 1010.5
20260502090355 36 250 0.0 0.0 0.00 0.00 0.00 88 1010.4
20260502071250 35 250 0.0 0.0 0.00 0.00 0.00 89 1011.3
20260502070749 35 250 0.0 0.0 0.00 0.00 0.00 89 1010.9
20260502070246 35 250 0.0 0.0 0.00 0.00 0.00 89 1010.6
20260502065744 35 250 0.0 0.0 0.00 0.00 0.00 89 1010.6
20260502065242 35 250 0.0 0.0 0.00 0.00 0.00 89 1010.7
20260502064740 34 250 0.0 0.0 0.00 0.00 0.00 89 1010.7
20260502064238 34 250 0.0 0.0 0.00 0.00 0.00 89 1010.5
20260502063735 34 250 0.0 0.0 0.00 0.00 0.00 89 1010.4
20260502063233 34 250 0.0 0.0 0.00 0.00 0.00 90 1010.4
20260502062729 34 250 0.0 0.0 0.00 0.00 0.00 90 1010.3
20260502062227 34 250 0.0 0.0 0.00 0.00 0.00 90 1010.4
20260502061725 33 250 0.0 0.0 0.00 0.00 0.00 91 1010.4
20260502061223 33 250 0.0 0.0 0.00 0.00 0.00 91 1010.2
20260502060718 33 250 0.0 0.0 0.00 0.00 0.00 91 1010.2
20260502060214 33 250 0.0 0.0 0.00 0.00 0.00 92 1010.3
20260502055712 33 250 0.0 0.0 0.00 0.00 0.00 92 1010.5
20260502055209 32 250 0.0 0.0 0.00 0.00 0.00 92 1010.2
20260502054704 32 250 0.0 0.0 0.00 0.00 0.00 92 1010.4
20260502054200 32 250 0.0 0.0 0.00 0.00 0.00 92 1010.3
20260502053658 32 250 0.0 0.0 0.00 0.00 0.00 92 1010.2
20260502053155 32 250 0.0 0.0 0.00 0.00 0.00 92 1010.2
20260502052653 31 250 0.0 0.0 0.00 0.00 0.00 91 1010.2
20260502052151 31 250 0.0 0.0 0.00 0.00 0.00 91 1010.3
20260502051649 31 250 0.0 0.0 0.00 0.00 0.00 91 1010.2
20260502051146 31 250 0.0 0.0 0.00 0.00 0.00 91 1010.2
20260502050642 31 250 0.0 0.0 0.00 0.00 0.00 90 1010.1
20260502050139 31 250 0.0 0.0 0.00 0.00 0.00 90 1010.1
20260502045636 32 250 0.0 0.0 0.00 0.00 0.00 90 1010.3
20260502045134 32 250 0.0 0.0 0.00 0.00 0.00 90 1010.2
20260502044630 32 250 0.0 0.0 0.00 0.00 0.00 89 1010.3
20260502044126 32 250 0.0 0.0 0.00 0.00 0.00 89 1010.0
20260502043624 32 250 0.0 0.0 0.00 0.00 0.00 89 1010.0
20260502043120 32 250 0.0 0.0 0.00 0.00 0.00 89 1010.1
20260502042615 32 250 0.0 0.0 0.00 0.00 0.00 88 1010.1
20260502042112 32 250 0.0 0.0 0.00 0.00 0.00 88 1010.2
20260502041610 33 250 0.0 0.0 0.00 0.00 0.00 87 1009.9
20260502041107 33 250 0.0 0.0 0.00 0.00 0.00 87 1010.0
20260502040604 33 250 0.0 0.0 0.00 0.00 0.00 87 1010.0
20260502035556 33 250 0.0 0.0 0.00 0.00 0.00 86 1010.1
20260502035054 33 250 0.0 0.0 0.00 0.00 0.00 86 1010.0
20260502034552 33 250 0.0 0.0 0.00 0.00 0.00 85 1009.9
20260502034050 33 250 0.0 0.0 0.00 0.00 0.00 85 1009.9
20260502033548 33 250 0.0 0.0 0.00 0.00 0.00 85 1010.1
20260502033045 33 250 0.0 0.0 0.00 0.00 0.00 85 1010.0